Location: Rostock
(54.0884°N, 12.1234°E)
Time: 04:48:39
(UTC+01:00)

ISS - Visible Passes

Search period start: 25 November 2017 00:00
Search period end: 05 December 2017 00:00
Orbit: 401 x 407 km, 51.6° (Epoch: 25 November)

Date Brightness Start Highest point End Pass type
(mag) Time Alt. Az. Time Alt. Az. Time Alt. Az.
29 Nov -0.9 18:59:55 10° SW 19:00:16 12° SSW 19:00:16 12° SSW visible
30 Nov -1.9 18:08:04 10° SSW 18:10:04 19° SSE 18:10:04 19° SSE visible
01 Dec -1.5 17:16:35 10° S 17:18:20 14° SE 17:19:49 11° ESE visible
01 Dec -1.5 18:51:05 10° SW 18:52:28 21° SW 18:52:28 21° SW visible
02 Dec -2.6 17:58:57 10° SW 18:01:52 30° SSE 18:02:09 29° SE visible
03 Dec -2.0 17:06:58 10° SSW 17:09:35 22° SSE 17:11:47 12° ESE visible
03 Dec -2.1 18:42:26 10° WSW 18:44:26 31° SW 18:44:26 31° SW visible
04 Dec -3.1 17:50:07 10° WSW 17:53:14 42° SSE 17:54:02 34° SE visible
04 Dec -0.5 19:26:15 10° W 19:26:40 13° W 19:26:40 13° W visible
